Wind_Speed
13 12 15 17 17 15 15 18 21 24 28 27 29 27 26 30 30 30 33 37 38 38 38 35 34 33 35 37 37 39 40 40 39 40 41 42 42 44 44 44 45 42 37 36 46 47 46 44 45
13 13 16 17 17 19 16 20 23 27 29 28 28 27 24 31 30 32 35 38 42 42 39 37 34 34 36 36 39 40 38 37 38 38 39 40 43 44 43 46 47 45 42 35 43 49 49 48 48
16 14 14 13 15 16 17 19 20 21 26 30 26 25 26 29 34 36 38 39 39 37 36 37 36 37 38 39 41 42 40 36 34 36 37 36 36 40 43 44 46 48 46 43 37 52 50 51 50
18 16 16 20 15 14 16 18 24 25 24 30 27 24 24 28 32 34 35 37 38 36 35 38 38 37 37 40 42 44 41 40 39 37 36 37 39 40 40 44 47 48 46 41 37 53 54 53 53
17 18 20 24 21 14 13 17 23 26 26 24 30 27 27 30 33 35 37 39 36 35 37 39 39 39 39 40 41 41 38 40 43 38 34 35 36 38 39 40 44 46 43 40 35 50 56 55 56
17 17 18 22 22 17 14 16 22 27 27 25 29 28 30 31 35 37 39 39 37 36 40 40 41 41 42 44 43 41 37 38 40 38 38 37 37 38 35 38 40 44 42 39 33 51 58 57 57
17 17 20 24 22 18 16 16 21 26 27 26 29 30 34 34 37 39 39 40 40 39 43 41 44 46 45 47 48 38 34 38 41 39 36 36 36 39 37 35 35 41 39 37 34 53 59 58 56
17 20 24 20 22 21 19 20 23 28 29 26 28 31 35 36 38 40 39 40 41 40 42 42 45 45 45 46 39 36 39 42 39 35 34 30 28 31 35 34 35 40 39 36 36 53 59 57 55
18 22 19 17 21 20 21 22 23 26 28 23 24 31 34 34 35 36 36 39 40 40 41 45 44 43 43 41 40 38 33 28 28 27 27 29 26 26 30 33 35 39 37 34 35 51 59 58 56
19 21 12 13 18 20 23 23 24 27 26 22 25 26 27 29 30 34 36 37 36 38 42 42 38 42 43 41 37 32 28 25 22 16 18 22 23 22 25 28 33 37 34 32 35 49 57 58 55
21 19 6 9 17 19 23 24 25 24 26 25 26 26 29 28 32 34 34 34 35 39 40 38 41 43 38 35 33 32 27 21 14 14 11 11 16 19 22 26 28 32 30 31 36 46 54 55 54
15 8 8 9 14 20 24 26 26 22 24 26 27 28 29 30 32 31 30 32 35 39 37 38 42 37 34 31 33 27 17 12 8 6 7 6 8 14 21 24 25 26 28 32 36 43 50 52 53
12 10 8 12 16 18 23 24 23 18 22 22 22 25 28 28 29 29 30 32 36 36 35 38 36 32 29 31 31 19 12 5 2 3 2 5 12 14 16 19 23 25 25 28 35 44 48 51 52
12 11 12 15 17 19 22 22 21 20 23 18 19 24 26 26 28 30 29 33 33 33 36 37 31 27 28 32 28 13 8 6 4 3 3 7 12 14 15 17 22 24 25 27 35 42 46 47 48
13 15 15 17 17 18 22 19 16 18 23 16 19 23 26 26 28 30 30 31 30 33 38 34 28 24 27 30 24 12 3 3 6 4 7 10 12 12 17 19 22 23 24 28 35 40 40 43 42
15 16 16 16 16 18 21 20 12 15 21 15 20 23 25 25 27 29 30 28 31 33 37 29 23 25 26 28 22 14 10 1 3 6 11 14 10 12 15 18 22 26 27 31 34 40 38 40 37
15 18 17 13 20 19 20 20 16 16 17 14 19 22 24 24 27 29 28 28 30 32 36 28 23 26 26 27 22 15 14 11 12 13 14 13 13 17 18 21 29 15 28 32 40 38 37 36 39
17 19 20 22 22 14 13 20 19 16 18 14 17 20 23 24 26 28 26 28 30 30 33 23 23 24 26 24 22 20 19 18 18 15 16 18 21 19 17 9 13 33 32 41 40 35 34 36 39
19 19 16 17 17 14 12 14 19 14 17 15 16 17 21 22 23 25 24 27 28 29 32 24 21 22 24 21 25 23 22 18 17 17 19 14 20 28 32 30 32 37 31 35 34 33 33 41 32
24 22 21 20 17 16 18 15 25 16 17 13 12 17 22 21 21 22 21 24 26 27 29 24 20 20 24 21 19 20 23 24 22 19 21 27 33 31 38 40 33 30 27 28 29 34 36 33 28
23 21 21 22 19 19 20 14 22 22 15 11 14 18 23 20 19 20 17 21 23 26 27 23 19 17 23 25 20 19 21 22 26 29 32 26 31 36 40 42 34 29 23 24 26 32 28 24 31
24 20 20 23 23 24 22 21 16 22 17 10 12 17 22 20 16 19 14 19 20 23 25 23 18 16 20 25 25 22 21 22 25 33 28 34 31 29 23 25 33 34 28 26 31 34 29 29 26
15 18 24 27 27 28 20 26 14 22 12 5 14 20 22 20 14 16 12 15 16 20 21 22 18 13 16 21 24 26 25 23 21 31 32 20 27 29 28 24 26 29 29 32 31 37 39 36 33
15 18 24 25 29 27 12 25 20 17 13 7 13 18 20 18 12 13 10 12 14 16 18 20 16 13 13 17 21 25 27 25 26 27 27 28 28 32 28 24 21 26 31 31 29 24 29 36 37
23 17 26 30 30 19 11 24 7 13 13 9 13 14 16 15 8 10 9 8 12 14 16 17 17 18 12 13 16 19 25 25 24 24 25 25 26 26 27 27 31 30 33 31 29 24 27 30 30
24 21 25 25 20 12 18 17 12 7 13 12 10 11 12 8 6 8 7 5 10 12 14 16 19 20 17 15 13 15 15 22 23 20 22 23 28 30 24 27 27 30 30 28 27 28 28 28 31
28 27 16 20 18 23 23 20 10 5 14 10 8 10 9 4 5 6 6 2 7 10 12 15 15 16 23 17 16 15 15 15 16 19 21 23 23 25 27 24 25 25 25 26 26 26 26 26 26
31 24 24 26 24 26 22 16 9 14 11 2 6 8 6 1 3 4 5 3 7 10 12 15 16 14 17 22 21 15 15 16 16 16 18 19 21 21 21 21 21 23 23 25 25 26 28 26 25
33 35 36 29 29 25 22 19 17 15 10 4 9 4 2 2 2 3 4 4 9 10 10 14 16 15 17 16 17 22 16 17 17 17 18 19 20 18 18 20 24 23 25 24 24 25 24 25 25
32 37 39 36 28 26 26 22 19 16 13 6 6 5 3 4 3 3 4 5 7 10 10 11 15 15 17 18 19 21 25 23 24 25 24 24 23 22 21 22 22 23 21 20 20 21 20 20 20
Wind_Direction
304 311 304 301 314 334 327 335 345 344 335 331 327 328 328 322 319 319 318 316 314 316 317 317 310 310 308 309 308 304 297 289 282 278 273 269 264 254 248 247 246 247 245 247 238 232 223 221 215
301 306 301 298 321 318 330 338 348 340 328 323 322 325 322 315 318 317 315 318 320 325 321 316 312 311 312 312 311 305 298 289 283 279 276 273 267 261 251 245 241 241 241 245 236 229 222 217 213
299 302 294 301 308 298 324 336 332 332 324 322 322 325 326 317 320 320 322 322 322 321 315 317 315 313 315 317 313 309 301 294 289 283 274 272 267 262 255 248 239 237 240 244 248 224 219 215 213
297 299 294 290 296 313 324 333 327 330 328 323 318 323 318 317 320 319 318 316 319 317 317 318 315 312 311 311 311 306 296 290 296 286 275 272 270 264 260 249 241 234 236 238 246 223 216 212 212
302 296 303 306 311 328 345 331 323 323 331 324 314 324 321 324 316 314 316 321 321 321 319 316 314 310 306 310 309 308 294 287 290 287 280 272 265 260 260 251 241 232 229 231 241 221 212 208 210
301 297 295 291 308 339 339 332 320 322 326 324 312 319 318 318 316 316 318 323 325 318 316 318 317 311 309 311 308 306 295 288 285 285 279 269 265 255 255 251 239 227 225 225 233 216 210 207 208
299 289 287 297 318 334 329 330 319 323 322 323 317 322 315 320 318 316 318 324 319 318 321 321 318 315 314 312 311 303 292 293 289 284 272 271 258 250 251 247 228 221 220 221 227 213 209 205 208
285 283 283 304 323 322 327 330 327 324 321 324 323 315 318 322 318 316 317 316 318 319 321 320 317 317 314 314 311 304 297 293 288 279 273 269 254 248 241 239 226 220 219 219 222 211 207 203 207
283 277 293 322 310 318 324 328 325 319 314 325 314 311 319 315 310 312 317 317 318 320 321 320 321 318 317 316 309 307 304 298 294 285 264 256 249 242 236 234 219 213 213 217 218 208 205 202 204
278 284 294 309 311 314 319 323 319 318 316 313 314 311 314 308 313 320 320 319 320 322 321 321 323 325 321 320 318 316 311 301 303 301 271 251 239 234 218 208 205 207 210 215 211 203 204 203 201
267 278 301 307 308 310 315 317 313 314 311 312 314 324 315 316 325 325 325 325 326 324 325 327 326 327 326 326 328 322 312 296 300 293 267 257 232 206 202 202 205 203 206 209 207 201 202 200 199
276 281 309 305 292 301 311 309 313 312 303 311 325 325 319 326 327 327 329 329 328 328 331 330 329 331 329 336 337 330 321 311 309 307 267 228 191 192 194 195 196 200 209 205 203 197 199 196 197
286 285 296 291 293 298 299 301 306 306 298 308 327 320 323 327 329 334 333 333 332 335 336 331 335 334 340 346 347 345 357 6 45 45 13 160 163 177 188 190 193 200 203 202 196 194 194 193 192
290 283 284 288 287 293 296 300 308 305 300 320 325 326 331 332 339 336 337 337 339 342 339 339 339 343 349 355 353 353 14 16 20 19 104 157 158 170 177 191 196 198 197 195 188 188 192 190 190
288 287 289 287 294 301 297 292 307 296 305 321 328 335 338 340 341 338 340 341 347 346 345 345 347 353 2 3 360 9 347 16 3 44 118 139 146 168 183 186 186 182 184 178 181 183 187 186 186
296 296 290 293 307 302 294 294 300 291 301 319 334 339 340 343 342 342 344 348 352 350 352 353 357 3 13 12 11 26 44 123 103 122 124 127 137 151 161 170 167 163 158 166 169 173 173 177 182
275 284 295 298 298 299 286 296 316 298 302 324 341 336 340 343 343 345 350 352 354 354 356 356 8 14 23 22 22 35 65 93 107 106 107 111 117 127 130 155 160 157 160 163 157 160 162 173 184
264 264 274 279 286 291 305 299 314 310 304 323 334 336 339 345 342 348 355 355 355 357 2 4 14 20 29 32 40 50 68 82 84 89 102 111 114 122 121 156 164 150 148 144 149 152 161 174 169
264 268 270 274 279 296 308 301 304 304 298 307 323 333 338 346 343 349 358 358 358 2 8 8 18 27 37 44 54 61 68 77 83 93 106 120 119 98 87 103 119 120 136 136 137 149 160 171 167
262 267 271 271 277 292 305 298 299 310 295 317 338 350 347 345 341 347 359 357 3 6 12 9 21 32 45 59 61 61 73 74 87 100 102 113 109 103 92 110 116 117 122 129 141 148 157 165 173
256 265 272 272 276 276 295 296 299 298 294 316 340 350 349 347 339 345 358 357 9 13 16 13 25 39 52 61 67 69 75 76 92 92 101 111 119 117 105 101 109 116 121 137 141 156 158 166 181
250 265 251 257 261 278 283 285 270 292 285 316 333 348 346 347 335 342 357 357 9 18 18 18 26 43 59 64 72 74 80 90 105 110 101 110 117 118 116 93 106 116 125 138 141 142 156 168 173
251 235 233 232 246 264 277 287 275 266 270 298 348 347 340 344 330 340 355 355 10 22 23 22 27 45 59 72 71 78 84 97 106 100 102 109 108 112 107 99 100 113 113 110 98 125 136 146 158
232 239 234 227 247 262 303 283 276 270 276 351 344 333 334 338 323 340 351 357 16 27 33 29 38 53 64 72 77 82 87 95 103 111 107 102 104 109 115 118 119 120 114 106 106 102 97 130 134
239 239 243 249 250 274 252 266 263 291 301 327 328 333 338 332 323 344 351 1 27 34 42 40 49 59 71 77 84 88 99 100 108 111 107 111 112 97 109 106 113 119 114 112 112 111 121 119 125
248 253 273 279 274 253 220 252 267 271 276 329 294 321 339 331 337 351 359 10 41 44 53 61 56 63 71 78 93 102 104 112 113 113 108 113 113 112 114 121 109 111 117 119 127 123 121 128 130
252 251 292 271 246 228 218 260 291 307 304 300 305 316 336 335 351 355 7 58 62 58 66 72 64 64 66 80 89 97 121 118 116 114 117 121 118 117 120 121 126 123 124 124 128 128 127 127 131
254 260 263 244 246 230 235 259 262 278 270 267 299 324 310 28 17 5 19 122 94 79 77 77 72 71 74 68 81 98 102 117 118 119 123 125 125 120 117 118 118 120 121 126 123 121 123 128 134
239 247 253 240 245 243 239 249 253 268 259 232 266 282 271 127 72 42 42 136 108 94 85 86 81 78 76 74 78 77 116 109 116 117 114 117 115 112 116 120 118 122 122 127 128 136 130 129 136
229 248 249 256 246 232 245 249 253 250 268 197 236 189 166 125 108 84 77 136 115 107 100 93 90 87 87 86 84 90 95 110 112 114 115 116 118 115 114 122 125 127 129 131 128 133 133 132 128
Height
5895 5891 5888 5885 5886 5885 5883 5880 5878 5874 5871 5870 5867 5868 5864 5857 5854 5854 5847 5843 5839 5835 5830 5825 5821 5817 5812 5807 5803 5799 5795 5792 5788 5786 5785 5784 5785 5788 5791 5794 5797 5800 5804 5809 5815 5822 5829 5836 5845
5892 5888 5885 5882 5882 5881 5880 5876 5873 5871 5870 5868 5866 5864 5862 5854 5851 5846 5842 5837 5830 5825 5821 5817 5814 5809 5804 5800 5795 5790 5786 5782 5779 5777 5775 5774 5774 5776 5779 5782 5786 5791 5795 5800 5805 5813 5820 5827 5835
5890 5884 5881 5879 5880 5881 5877 5874 5874 5874 5869 5864 5864 5861 5855 5849 5843 5839 5834 5830 5827 5823 5817 5811 5806 5800 5795 5790 5785 5779 5775 5772 5770 5768 5766 5765 5764 5764 5767 5771 5775 5780 5785 5791 5796 5803 5811 5819 5827
5887 5883 5879 5876 5880 5878 5874 5871 5869 5868 5868 5861 5859 5858 5854 5846 5841 5836 5832 5829 5824 5819 5812 5805 5799 5794 5789 5784 5778 5772 5766 5762 5759 5757 5756 5755 5754 5754 5755 5759 5764 5768 5775 5781 5787 5794 5801 5810 5818
5883 5881 5876 5873 5874 5878 5872 5869 5867 5865 5865 5860 5853 5853 5849 5843 5838 5833 5828 5823 5818 5812 5806 5799 5793 5787 5783 5778 5771 5764 5758 5753 5749 5747 5745 5744 5744 5744 5745 5747 5752 5757 5765 5771 5777 5784 5792 5800 5808
5881 5879 5875 5872 5872 5873 5870 5868 5865 5863 5861 5856 5851 5848 5845 5840 5835 5829 5823 5817 5811 5806 5800 5793 5786 5779 5773 5767 5761 5756 5749 5744 5739 5735 5734 5733 5732 5733 5735 5737 5741 5748 5755 5761 5766 5773 5783 5792 5799
5879 5876 5873 5870 5870 5869 5868 5867 5863 5860 5857 5854 5847 5843 5841 5836 5830 5823 5818 5811 5806 5799 5792 5786 5778 5770 5764 5756 5748 5742 5738 5733 5728 5725 5723 5721 5720 5722 5726 5728 5733 5739 5746 5752 5757 5764 5774 5784 5791
5874 5873 5872 5868 5866 5866 5865 5863 5858 5854 5851 5851 5845 5840 5836 5831 5825 5818 5812 5807 5800 5793 5787 5781 5773 5764 5756 5748 5739 5733 5727 5722 5716 5713 5712 5710 5711 5711 5716 5720 5725 5731 5738 5744 5750 5757 5766 5776 5785
5872 5873 5870 5866 5865 5862 5860 5858 5856 5852 5849 5848 5842 5837 5833 5828 5822 5816 5810 5803 5796 5789 5782 5774 5767 5757 5748 5740 5732 5724 5717 5711 5706 5702 5701 5701 5703 5704 5708 5711 5717 5725 5732 5737 5743 5751 5759 5769 5778
5869 5868 5866 5864 5862 5859 5856 5856 5853 5849 5846 5843 5840 5838 5833 5826 5819 5812 5806 5800 5793 5785 5778 5769 5760 5750 5741 5731 5723 5715 5709 5704 5699 5695 5693 5693 5695 5697 5700 5705 5712 5720 5726 5732 5737 5743 5752 5763 5774
5866 5864 5864 5861 5857 5855 5853 5851 5850 5846 5840 5838 5837 5833 5828 5822 5814 5808 5802 5796 5788 5780 5772 5762 5753 5743 5734 5726 5717 5708 5701 5697 5694 5692 5690 5690 5691 5694 5698 5704 5710 5716 5722 5728 5733 5739 5749 5761 5771
5865 5861 5859 5858 5856 5853 5850 5849 5847 5844 5838 5835 5832 5828 5823 5816 5810 5805 5799 5792 5784 5776 5767 5758 5748 5739 5731 5722 5713 5703 5696 5692 5691 5689 5689 5688 5690 5693 5697 5702 5708 5715 5720 5725 5730 5736 5747 5759 5769
5858 5857 5854 5854 5852 5851 5847 5847 5845 5842 5837 5833 5831 5827 5821 5815 5809 5803 5795 5788 5779 5771 5763 5754 5745 5736 5728 5719 5709 5701 5696 5694 5692 5691 5690 5689 5690 5694 5698 5703 5707 5712 5717 5722 5728 5735 5746 5757 5768
5854 5853 5852 5851 5849 5847 5845 5844 5841 5838 5835 5833 5830 5825 5818 5813 5806 5800 5792 5784 5776 5769 5760 5751 5742 5734 5727 5717 5708 5702 5698 5696 5695 5694 5692 5693 5694 5697 5700 5702 5706 5709 5713 5719 5726 5736 5746 5757 5768
5850 5850 5849 5848 5846 5844 5842 5842 5841 5835 5832 5831 5828 5821 5814 5809 5805 5798 5790 5781 5774 5767 5758 5748 5741 5734 5726 5717 5708 5703 5700 5698 5697 5697 5696 5695 5696 5697 5698 5701 5704 5707 5712 5718 5727 5736 5746 5757 5769
5846 5846 5845 5844 5844 5842 5839 5837 5836 5833 5830 5829 5824 5817 5813 5806 5804 5796 5788 5780 5773 5765 5757 5748 5741 5735 5727 5718 5710 5705 5700 5699 5699 5699 5699 5698 5698 5699 5700 5702 5706 5709 5712 5720 5728 5737 5748 5760 5770
5843 5842 5841 5842 5842 5840 5836 5833 5833 5830 5827 5827 5821 5816 5811 5806 5802 5795 5787 5779 5773 5765 5758 5749 5742 5736 5730 5721 5714 5709 5705 5703 5702 5703 5702 5702 5702 5703 5704 5705 5708 5710 5716 5722 5732 5741 5752 5764 5772
5837 5836 5837 5837 5837 5835 5833 5829 5826 5826 5823 5823 5820 5815 5810 5805 5801 5795 5787 5780 5773 5766 5759 5752 5744 5740 5733 5726 5720 5715 5712 5709 5709 5708 5708 5708 5708 5706 5711 5708 5711 5716 5722 5729 5737 5748 5757 5767 5774
5833 5833 5834 5831 5830 5829 5827 5826 5824 5823 5821 5821 5819 5813 5808 5803 5800 5795 5787 5781 5775 5767 5760 5754 5748 5744 5738 5732 5727 5724 5720 5716 5715 5713 5715 5715 5715 5714 5716 5713 5716 5725 5731 5737 5744 5752 5761 5770 5776
5828 5828 5828 5828 5827 5824 5822 5822 5819 5819 5820 5820 5816 5811 5807 5803 5800 5795 5788 5783 5776 5769 5762 5757 5752 5748 5743 5737 5734 5731 5728 5725 5722 5721 5722 5722 5724 5725 5724 5727 5731 5736 5741 5745 5750 5756 5764 5772 5779
5822 5823 5824 5823 5821 5819 5819 5820 5816 5816 5817 5816 5813 5809 5805 5802 5800 5795 5789 5784 5778 5771 5764 5760 5755 5752 5747 5742 5739 5738 5735 5733 5730 5728 5729 5729 5729 5732 5735 5737 5740 5743 5747 5751 5754 5760 5765 5774 5781
5817 5819 5819 5817 5816 5816 5816 5815 5816 5814 5814 5814 5810 5808 5805 5801 5800 5796 5790 5786 5780 5774 5768 5763 5759 5756 5752 5749 5745 5742 5741 5740 5738 5735 5737 5737 5738 5739 5739 5743 5747 5751 5753 5756 5759 5763 5767 5775 5784
5813 5814 5814 5813 5813 5813 5813 5810 5813 5813 5814 5811 5808 5806 5804 5802 5800 5797 5791 5788 5782 5777 5771 5767 5763 5760 5757 5754 5752 5749 5747 5747 5747 5743 5744 5744 5744 5740 5749 5751 5754 5757 5759 5760 5762 5766 5772 5776 5783
5809 5808 5808 5809 5809 5808 5813 5808 5808 5808 5809 5807 5806 5805 5803 5801 5799 5797 5792 5789 5784 5779 5775 5771 5767 5764 5762 5760 5758 5756 5754 5754 5754 5753 5754 5753 5751 5754 5756 5759 5762 5765 5766 5767 5771 5774 5776 5782 5787
5803 5804 5805 5805 5804 5806 5808 5803 5806 5804 5804 5805 5805 5804 5801 5800 5798 5796 5793 5791 5786 5782 5778 5774 5771 5768 5766 5765 5764 5764 5761 5762 5762 5761 5760 5761 5761 5761 5763 5767 5768 5771 5774 5776 5779 5781 5785 5788 5792
5797 5801 5801 5800 5802 5804 5802 5800 5801 5802 5802 5803 5803 5803 5800 5799 5798 5796 5794 5791 5787 5784 5781 5778 5776 5772 5770 5769 5768 5768 5769 5767 5768 5768 5768 5767 5768 5770 5770 5770 5776 5778 5780 5783 5787 5790 5792 5795 5799
5793 5795 5800 5797 5798 5797 5798 5799 5796 5800 5801 5802 5801 5802 5800 5798 5797 5795 5794 5792 5790 5787 5784 5781 5780 5778 5775 5773 5773 5772 5772 5773 5774 5774 5774 5774 5775 5776 5778 5778 5782 5783 5785 5788 5791 5795 5798 5802 5805
5786 5793 5792 5792 5791 5791 5793 5794 5796 5797 5800 5801 5800 5800 5801 5798 5797 5795 5794 5793 5791 5789 5787 5785 5784 5783 5781 5778 5776 5775 5776 5777 5778 5779 5780 5780 5781 5783 5785 5785 5786 5788 5791 5794 5796 5800 5803 5806 5810
5782 5783 5784 5788 5788 5789 5789 5791 5795 5797 5796 5797 5797 5798 5799 5797 5796 5795 5795 5794 5793 5791 5790 5788 5787 5786 5785 5784 5782 5780 5779 5780 5781 5782 5783 5785 5786 5788 5789 5790 5792 5794 5797 5800 5801 5804 5806 5809 5812
5775 5776 5778 5782 5786 5785 5784 5788 5793 5796 5794 5794 5794 5797 5798 5795 5796 5795 5795 5795 5794 5793 5793 5792 5790 5790 5789 5789 5788 5786 5786 5786 5787 5788 5789 5791 5791 5792 5793 5794 5796 5798 5801 5803 5806 5808 5810 5813 5816